Location: Bellflower
(33.8817°N, 118.1170°W)
Time: 13:42:42
(UTC+00:00)

CZ-4B R/B - Pass Details

Date: 23 November 2020
Orbit: 485 x 652 km, 97.9° (Epoch: 21 January)

Event Time Altitude Azimuth Distance (km) Brightness Sun altitude
Rises 13:03:50 0° 11° (N) 2,979 6.5 -18.3°
Reaches altitude 10° 13:06:04 10° 10° (N) 2,064 5.7 -17.9°
Maximum altitude 13:10:36 83° 284° (WNW) 656 3.0 -16.9°
Drops below altitude 10° 13:15:01 10° 196° (SSW) 2,013 5.7 -16.1°
Sets 13:17:11 0° 195° (SSW) 2,899 6.5 -15.6°
